Location: Aldenham
(51.6667°N, 0.3500°W)
Time: 17:18:44
(UTC+00:00)

SL-16 R/B - Pass Details

Date: 18 November 2025
Orbit: 985 x 1006 km, 99.8° (Epoch: 12 December)

Event Time Altitude Azimuth Distance (km) Brightness Sun altitude
Rises 16:43:40 0° 17° (NNE) 3,749 5.2 -5.8°
Reaches altitude 10° 16:46:11 10° 20° (NNE) 2,794 4.5 -6.2°
Maximum altitude 16:52:29 74° 105° (ESE) 1,045 2.6 -7.1°
Drops below altitude 10° 16:58:42 10° 191° (S) 2,767 5.3 -8.0°
Sets 17:01:11 0° 193° (SSW) 3,710 6.1 -8.3°
